Location: Chippewa Lake
(41.0698°N, 81.9010°W)
Time: 20:13:09
(UTC+00:00)

Envisat - Pass Details

Date: 31 May 2023
Orbit: 763 x 764 km, 98.2° (Epoch: 24 September)

Event Time Altitude Azimuth Distance (km) Brightness Sun altitude
Rises 09:20:11 0° 13° (NNE) 3,237 7.1 -6.8°
Reaches altitude 10° 09:22:30 10° 14° (NNE) 2,307 6.3 -6.4°
Maximum altitude 09:27:36 86° 103° (ESE) 771 3.1 -5.7°
Drops below altitude 10° 09:32:40 10° 193° (SSW) 2,291 5.0 -4.9°
Sets 09:34:57 0° 194° (SSW) 3,213 5.8 -4.5°
